When you browse on this site, cookies collect data to enhance your experience and personalize the content and advertising you see.
Visit our Privacy Policy to learn more. By continuing to use the site, you agree to this use of cookies and data.
  • In Switzerland
  • List of Countries
  • For 7 days
  • Water Temperature
  • Weather Map
  • Weather Widgets
  • user-avatar
    Login

    Hourly Weather Salgotarjan

    Today, 29 March, Sunday

    Time Temperature Precipitation Wind Pressure Humidity
    00:00 +7°C° 0 mm 1 mps 728 mmHg 86%
    01:00 +7°C° 0 mm 1 mps 727 mmHg 86%
    02:00 +6°C° 0 mm 1 mps 727 mmHg 86%
    03:00 +6°C° 0 mm 1 mps 727 mmHg 86%
    04:00 +5°C° 0 mm 0 mps 727 mmHg 85%
    05:00 +6°C° 0 mm 1 mps 727 mmHg 83%
    06:00 +7°C° 0 mm 1 mps 727 mmHg 81%
    07:00 +8°C° 0 mm 1 mps 727 mmHg 79%
    08:00 +10°C° 0 mm 1 mps 727 mmHg 71%
    09:00 +12°C° 0 mm 1 mps 728 mmHg 63%
    10:00 +14°C° 0 mm 1 mps 728 mmHg 56%
    11:00 +14°C° 0.1 mm 1 mps 728 mmHg 52%
    12:00 +15°C° 0.1 mm 1 mps 727 mmHg 49%
    13:00 +16°C° 0.1 mm 1 mps 727 mmHg 45%
    14:00 +16°C° 0.1 mm 1 mps 727 mmHg 47%
    15:00 +15°C° 0.1 mm 2 mps 727 mmHg 48%
    16:00 +15°C° 0.1 mm 2 mps 727 mmHg 49%
    17:00 +13°C° 0.1 mm 2 mps 727 mmHg 56%
    18:00 +11°C° 0.1 mm 3 mps 727 mmHg 64%
    19:00 +9°C° 0.1 mm 3 mps 727 mmHg 71%
    20:00 +8°C° 0 mm 3 mps 728 mmHg 74%
    21:00 +8°C° 0 mm 2 mps 728 mmHg 76%
    22:00 +7°C° 0 mm 2 mps 728 mmHg 78%
    23:00 +7°C° 0 mm 2 mps 728 mmHg 77%

    Tomorrow, 30 March, Monday

    Time Temperature Precipitation Wind Pressure Humidity
    00:00 +7°C° 0 mm 2 mps 729 mmHg 77%
    01:00 +7°C° 0 mm 1 mps 729 mmHg 77%
    02:00 +6°C° 0 mm 2 mps 729 mmHg 77%
    03:00 +6°C° 0 mm 2 mps 729 mmHg 77%
    04:00 +5°C° 0 mm 2 mps 729 mmHg 77%
    05:00 +5°C° 0 mm 2 mps 730 mmHg 74%
    06:00 +5°C° 0 mm 2 mps 730 mmHg 72%
    07:00 +4°C° 0 mm 2 mps 731 mmHg 70%
    08:00 +5°C° 0 mm 2 mps 731 mmHg 66%
    09:00 +5°C° 0 mm 2 mps 731 mmHg 62%
    10:00 +5°C° 0 mm 2 mps 732 mmHg 58%
    11:00 +6°C° 0 mm 2 mps 732 mmHg 57%
    12:00 +6°C° 0 mm 2 mps 732 mmHg 57%
    13:00 +7°C° 0 mm 1 mps 732 mmHg 56%
    14:00 +6°C° 0.2 mm 2 mps 732 mmHg 60%
    15:00 +5°C° 0.2 mm 2 mps 732 mmHg 63%
    16:00 +4°C° 0.2 mm 2 mps 732 mmHg 67%
    17:00 +3°C° 0.4 mm 2 mps 732 mmHg 67%
    18:00 +1°C° 0.4 mm 3 mps 733 mmHg 67%
    19:00 0°C° 0.4 mm 3 mps 733 mmHg 67%
    20:00 0°C° 0.1 mm 3 mps 733 mmHg 65%
    21:00 -1°C° 0.1 mm 3 mps 734 mmHg 62%
    22:00 -2°C° 0.1 mm 3 mps 734 mmHg 59%
    23:00 -2°C° 0 mm 3 mps 734 mmHg 59%

    Day after tomorrow, 31 March, Tuesday

    Time Temperature Precipitation Wind Pressure Humidity
    00:00 -2°C° 0 mm 3 mps 734 mmHg 59%
    01:00 -2°C° 0 mm 3 mps 734 mmHg 59%
    02:00 -3°C° 0 mm 2 mps 734 mmHg 59%
    03:00 -3°C° 0 mm 2 mps 735 mmHg 59%
    04:00 -3°C° 0 mm 2 mps 735 mmHg 59%
    05:00 -2°C° 0 mm 2 mps 735 mmHg 56%
    06:00 -2°C° 0 mm 2 mps 735 mmHg 53%
    07:00 -1°C° 0 mm 3 mps 735 mmHg 50%
    08:00 0°C° 0 mm 3 mps 735 mmHg 46%
    09:00 0°C° 0 mm 4 mps 735 mmHg 42%
    10:00 +3°C° 0 mm 4 mps 736 mmHg 38%
    11:00 +3°C° 0 mm 4 mps 735 mmHg 36%
    12:00 +4°C° 0 mm 4 mps 735 mmHg 34%
    13:00 +5°C° 0 mm 4 mps 735 mmHg 32%
    14:00 +4°C° 0 mm 4 mps 735 mmHg 33%
    15:00 +4°C° 0 mm 3 mps 735 mmHg 34%
    16:00 +4°C° 0 mm 3 mps 734 mmHg 35%
    17:00 +3°C° 0.1 mm 3 mps 734 mmHg 42%
    18:00 +2°C° 0.1 mm 2 mps 735 mmHg 49%
    19:00 +1°C° 0.1 mm 2 mps 735 mmHg 57%
    20:00 -1°C° 0 mm 2 mps 735 mmHg 59%
    21:00 -1°C° 0 mm 2 mps 735 mmHg 61%
    22:00 -2°C° 0 mm 2 mps 735 mmHg 63%
    23:00 -2°C° 0 mm 2 mps 735 mmHg 64%

    1 April, Wednesday

    Time Temperature Precipitation Wind Pressure Humidity
    00:00 -3°C° 0 mm 2 mps 735 mmHg 64%
    01:00 -1°C° 0 mm 1 mps 735 mmHg 64%
    02:00 -1°C° 0 mm 1 mps 735 mmHg 65%
    03:00 -1°C° 0 mm 1 mps 734 mmHg 65%
    04:00 -1°C° 0 mm 1 mps 734 mmHg 65%
    05:00 0°C° 0 mm 1 mps 734 mmHg 60%
    06:00 +1°C° 0 mm 1 mps 734 mmHg 56%
    07:00 +1°C° 0 mm 1 mps 734 mmHg 51%
    08:00 +3°C° 0 mm 1 mps 734 mmHg 45%
    09:00 +5°C° 0 mm 1 mps 734 mmHg 39%
    10:00 +5°C° 0 mm 2 mps 733 mmHg 33%
    11:00 +7°C° 0 mm 1 mps 733 mmHg 31%
    12:00 +7°C° 0 mm 1 mps 733 mmHg 29%
    13:00 +8°C° 0 mm 1 mps 732 mmHg 27%
    14:00 +8°C° 0 mm 1 mps 732 mmHg 29%
    15:00 +8°C° 0 mm 1 mps 731 mmHg 30%
    16:00 +7°C° 0 mm 2 mps 731 mmHg 31%
    17:00 +5°C° 0 mm 2 mps 731 mmHg 38%
    18:00 +3°C° 0 mm 2 mps 731 mmHg 45%
    19:00 +2°C° 0 mm 2 mps 731 mmHg 52%
    20:00 +1°C° 0 mm 2 mps 731 mmHg 56%
    21:00 +2°C° 0 mm 1 mps 731 mmHg 59%
    22:00 +1°C° 0 mm 1 mps 731 mmHg 63%
    23:00 +1°C° 0 mm 1 mps 731 mmHg 64%

    2 April, Thursday

    Time Temperature Precipitation Wind Pressure Humidity
    00:00 +1°C° 0 mm 1 mps 731 mmHg 65%
    01:00 0°C° 0 mm 1 mps 731 mmHg 66%
    02:00 0°C° 0 mm 1 mps 730 mmHg 67%
    03:00 0°C° 0 mm 1 mps 730 mmHg 68%
    04:00 0°C° 0 mm 1 mps 730 mmHg 68%
    05:00 +1°C° 0 mm 1 mps 730 mmHg 65%
    06:00 +2°C° 0 mm 1 mps 730 mmHg 61%
    07:00 +3°C° 0 mm 1 mps 731 mmHg 57%
    08:00 +4°C° 0 mm 2 mps 730 mmHg 53%
    09:00 +5°C° 0 mm 2 mps 730 mmHg 49%
    10:00 +7°C° 0 mm 3 mps 730 mmHg 45%
    11:00 +8°C° 0 mm 3 mps 730 mmHg 45%
    12:00 +9°C° 0 mm 3 mps 730 mmHg 45%
    13:00 +8°C° 0 mm 4 mps 730 mmHg 44%
    14:00 +8°C° 0 mm 4 mps 730 mmHg 46%
    15:00 +8°C° 0 mm 4 mps 729 mmHg 47%
    16:00 +8°C° 0 mm 4 mps 729 mmHg 48%
    17:00 +7°C° 0 mm 3 mps 729 mmHg 54%
    18:00 +5°C° 0 mm 3 mps 729 mmHg 61%
    19:00 +4°C° 0 mm 2 mps 729 mmHg 67%
    20:00 +4°C° 0 mm 2 mps 729 mmHg 69%
    21:00 +4°C° 0 mm 1 mps 729 mmHg 71%
    22:00 +4°C° 0 mm 1 mps 729 mmHg 72%
    23:00 +3°C° 0 mm 1 mps 729 mmHg 74%

    3 April, Friday

    Time Temperature Precipitation Wind Pressure Humidity
    00:00 +3°C° 0 mm 1 mps 729 mmHg 75%
    01:00 +3°C° 0 mm 1 mps 729 mmHg 76%
    02:00 +3°C° 0 mm 1 mps 729 mmHg 77%
    03:00 +2°C° 0 mm 1 mps 729 mmHg 78%
    04:00 +1°C° 0 mm 0 mps 729 mmHg 79%
    05:00 +2°C° 0 mm 0 mps 729 mmHg 76%
    06:00 +3°C° 0 mm 0 mps 729 mmHg 73%
    07:00 +4°C° 0 mm 0 mps 730 mmHg 70%
    08:00 +7°C° 0 mm 1 mps 729 mmHg 63%
    09:00 +9°C° 0 mm 1 mps 729 mmHg 57%
    10:00 +9°C° 0 mm 2 mps 729 mmHg 50%
    11:00 +10°C° 0 mm 3 mps 729 mmHg 47%
    12:00 +11°C° 0 mm 3 mps 729 mmHg 44%
    13:00 +12°C° 0 mm 4 mps 729 mmHg 41%
    14:00 +11°C° 0 mm 4 mps 728 mmHg 42%
    15:00 +11°C° 0 mm 4 mps 728 mmHg 44%
    16:00 +11°C° 0 mm 4 mps 727 mmHg 45%
    17:00 +10°C° 0 mm 3 mps 727 mmHg 50%
    18:00 +8°C° 0 mm 2 mps 727 mmHg 56%
    19:00 +8°C° 0 mm 1 mps 727 mmHg 62%
    20:00 +8°C° 0 mm 1 mps 728 mmHg 62%
    21:00 +8°C° 0 mm 1 mps 728 mmHg 62%
    22:00 +7°C° 0 mm 1 mps 728 mmHg 62%
    23:00 +7°C° 0 mm 1 mps 728 mmHg 64%
    Show more